This is the latest recevied weather packets stored in our database for station/object W2IRT. If no packets are shown the sender has not sent any weather packets the latest 10 day(s).
| Time | Temp. | Humidity | Pressure | Rain* | Wind** | Luminosity | Snow |
|---|---|---|---|---|---|---|---|
| 1777674616 | 17.78° C | 38% | 1009.4 hPa | 0 mm | - | - | - |
| 1777674316 | 17.78° C | 38% | 1009.6 hPa | 0 mm | - | - | - |
| 1777674016 | 17.78° C | 37% | 1009.6 hPa | 0 mm | - | - | - |
| 1777673716 | 17.78° C | 37% | 1009.6 hPa | 0 mm | - | - | - |
| 1777673430 | 17.78° C | 38% | 1009.7 hPa | 0 mm | - | - | - |
| 1777673115 | 17.78° C | 37% | 1009.7 hPa | 0 mm | - | - | - |
| 1777672815 | 18.33° C | 36% | 1009.7 hPa | 0 mm | - | - | - |
| 1777672515 | 18.33° C | 38% | 1009.6 hPa | 0 mm | - | - | - |
| 1777672215 | 18.33° C | 37% | 1009.6 hPa | 0 mm | - | - | - |
| 1777671915 | 18.33° C | 38% | 1009.7 hPa | 0 mm | - | - | - |
| 1777671615 | 18.33° C | 37% | 1009.8 hPa | 0 mm | - | - | - |
| 1777671315 | 18.33° C | 38% | 1009.8 hPa | 0 mm | - | - | - |
| 1777671015 | 18.33° C | 38% | 1009.7 hPa | 0 mm | - | - | - |
| 1777670715 | 18.33° C | 39% | 1009.5 hPa | 0 mm | - | - | - |
| 1777670416 | 18.33° C | 36% | 1009.6 hPa | 0 mm | - | - | - |
| 1777670115 | 18.89° C | 37% | 1009.6 hPa | 0 mm | - | - | - |
| 1777669815 | 18.89° C | 37% | 1009.6 hPa | 0 mm | - | - | - |
| 1777669515 | 18.89° C | 36% | 1009.4 hPa | 0 mm | - | - | - |
| 1777669215 | 18.89° C | 39% | 1009.5 hPa | 0 mm | - | - | - |
| 1777668915 | 18.89° C | 37% | 1009.4 hPa | 0 mm | - | - | - |
| 1777668615 | 18.89° C | 38% | 1009.5 hPa | 0 mm | - | - | - |
| 1777668315 | 18.33° C | 39% | 1009.5 hPa | 0 mm | - | - | - |
| 1777668015 | 18.33° C | 38% | 1009.5 hPa | 0 mm | - | - | - |
| 1777667717 | 18.33° C | 38% | 1009.5 hPa | 0 mm | - | - | - |
| 1777667417 | 18.33° C | 39% | 1009.6 hPa | 0 mm | - | - | - |
* Rain latest hour (hover to see other rain measurements)
** Current wind speed in m/s (hover to see current wind gust speed)